Location: Newark
(51.0500°N, 12.4500°E)
Time: 10:59:43
(UTC+00:00)

Vanguard 3 - Pass Details

Date: 18 February 2020
Orbit: 508 x 3263 km, 33.4° (Epoch: 07 April)

Event Time Altitude Azimuth Distance (km) Brightness Sun altitude
Rises 16:57:58 0° 263° (W) 5,975 14.3 -5.0°
Reaches altitude 10° 17:05:33 10° 239° (WSW) 5,547 12.8 -6.1°
Maximum altitude 17:11:12 12° 219° (SW) 5,648 12.2 -7.0°
Drops below altitude 10° 17:17:22 10° 200° (SSW) 6,090 12.0 -8.0°
Sets 17:27:07 0° 177° (S) 7,213 12.0 -9.5°
